Location: Baumgartsau
(48.4586°N, 14.0864°E)
Time: 01:05:40
(UTC+00:00)

SL-16 R/B - Pass Details

Date: 11 August 2020
Orbit: 843 x 845 km, 71.0° (Epoch: 26 September)

Event Time Altitude Azimuth Distance (km) Brightness Sun altitude
Rises 19:07:02 0° 336° (NNW) 3,416 6.4 -7.1°
Reaches altitude 10° 19:09:59 10° 350° (N) 2,478 5.3 -7.5°
Maximum altitude 19:14:32 24° 43° (NE) 1,689 3.7 -8.1°
Drops below altitude 10° 19:19:04 10° 97° (E) 2,469 4.1 -8.7°
Enters shadow 19:19:36 - 100° (E) 2,628 4.2 -8.8°
